Flag for Indonesia Weather past 2 weeks in Medan, North Sumatra, Indonesia

Now
77 °F

Passing clouds.


Feels Like: 78 °F
Forecast: 76 / 91 °F
Wind: No wind

Location: Medan / Polonia

Current Time: May 30, 2015 at 3:35:19 AM

Latest Report: May 30, 2015 at 3:00 AM


Visibility: 3 mi

Pressure: 29.77 "Hg

Humidity: 100%

Dew point: 77 °F

Location of MedanLocation

Historic Weather in Medan — Graph

°F

Medan temperature yesterday

Maximum temperature yesterday: 93 °F (at 11:30 AM)
Minimum temperature yesterday: 75 °F (at 5:00 AM)
Average temperature yesterday: 84 °F

Past Weeks' High & Low Weather Summary

 TemperatureHumidityPressure
High95 °F (May 19, 12:00 PM)100% (May 15, 2:00 AM)29.95 "Hg (May 15, 2:00 AM)
Low73 °F (May 26, 9:00 PM)56% (May 18, 12:00 PM)29.71 "Hg (May 16, 4:00 PM)
Average83 °F86%29.82 "Hg
* Reported May 15 2:00 AM — May 30 2:00 AM, Medan, Weather by CustomWeather, © 2015

Note: Actual official high and low records may vary slightly from our data, if they occured in-between our weather recording intervals... More about our weather records

Advertising

Medan weather history for previous 24 hours

 ConditionsComfort  
Time TempWeatherWind HumidityBarometerVisibility
2:00 AM
Sat, May 30
79 °FPassing clouds.3 mph94%29.80 "Hg3 mi
1:30 AM79 °FPassing clouds.3 mph94%29.80 "Hg3 mi
1:00 AM79 °FPassing clouds.5 mph94%29.83 "Hg3 mi
12:30 AM79 °FPassing clouds.5 mph94%29.83 "Hg4 mi
12:00 AM81 °FPassing clouds.No wind94%29.83 "Hg4 mi
11:30 PM
Fri, May 29
81 °FPassing clouds.No wind89%29.83 "Hg4 mi
11:00 PM81 °FPassing clouds.No wind89%29.86 "Hg4 mi
10:30 PM81 °FPassing clouds.5 mph94%29.83 "Hg4 mi
10:00 PM82 °FPassing clouds.5 mph94%29.83 "Hg4 mi
9:30 PM82 °FPassing clouds.8 mph94%29.83 "Hg4 mi
9:00 PM84 °FPassing clouds.7 mph89%29.83 "Hg4 mi
8:30 PM84 °FPassing clouds.6 mph89%29.83 "Hg4 mi
8:00 PM84 °FPassing clouds.5 mph89%29.80 "Hg4 mi
7:30 PM84 °FWarm.3 mph89%29.77 "Hg6 mi
7:00 PM84 °FPassing clouds.6 mph89%29.77 "Hg4 mi
6:30 PM86 °FWarm.6 mph84%29.77 "HgN/A
6:00 PM86 °FPassing clouds.8 mph84%29.74 "Hg4 mi
5:30 PM88 °FPassing clouds.9 mph79%29.74 "Hg4 mi
5:00 PM90 °FHot.8 mph75%29.74 "HgN/A
4:30 PM90 °FPassing clouds.9 mph75%29.74 "Hg4 mi
4:00 PM88 °FPassing clouds.12 mph79%29.74 "Hg4 mi
3:30 PM88 °FPassing clouds.9 mph79%29.74 "Hg4 mi
3:00 PM86 °FPassing clouds.9 mph84%29.74 "HgN/A
2:30 PM86 °FPassing clouds.9 mph84%29.77 "Hg4 mi
2:00 PM88 °FPassing clouds.9 mph79%29.77 "Hg4 mi
1:30 PM90 °FScattered clouds.12 mph75%29.80 "HgN/A
1:00 PM91 °FScattered clouds.8 mph71%29.80 "Hg4 mi
12:30 PM93 °FScattered clouds.7 mph63%29.80 "Hg5 mi
12:00 PM93 °FPartly sunny.3 mph63%29.83 "Hg5 mi
11:30 AM93 °FScattered clouds.5 mph59%29.83 "Hg4 mi
11:00 AM91 °FScattered clouds.6 mph63%29.83 "HgN/A
10:30 AM91 °FScattered clouds.3 mph63%29.86 "HgN/A
10:00 AM90 °FPassing clouds.6 mph67%29.86 "Hg5 mi
9:30 AM90 °FPassing clouds.5 mph67%29.86 "Hg5 mi
9:00 AM88 °FPassing clouds.No wind70%29.86 "Hg5 mi
8:30 AM84 °FPassing clouds.2 mph79%29.86 "Hg4 mi
8:00 AM82 °FPassing clouds.2 mph84%29.83 "Hg3 mi
7:30 AM79 °FHaze.2 mph94%29.83 "Hg2 mi
6:30 AM75 °FScattered clouds.3 mph94%29.80 "Hg2 mi
6:00 AM75 °FPassing clouds.No wind94%29.77 "Hg3 mi
5:00 AM75 °FPassing clouds.3 mph94%29.77 "Hg3 mi
4:00 AM77 °FPassing clouds.3 mph100%29.74 "Hg4 mi
3:30 AM77 °FPassing clouds.No wind94%29.74 "Hg4 mi
3:00 AM77 °FPassing clouds.No wind94%29.74 "Hg4 mi
Weather by CustomWeather, © 2015

See weather overviewHow to use our weather pages